Regional Weather Roundup
Issued by NWS

Home | Current Version | Previous Version | Text Only | Print | Product List | Glossary Off
Versions: 1 2 3 4 5 6 7 8 9 10 11 12 13 14 15 16 17 18 19 20 21 22 23 24 25 26 27 28 29 30 31 32 33 34 35 36 37 38 39 40 41 42 43 44 45 46 47 48 49 50

000
ASUS43 KLSX 302357
RWRMO

WEATHER SUMMARY FOR MISSOURI
NATIONAL WEATHER SERVICE SPRINGFIELD MO
700 PM CDT SAT JUL 30 2016

NOTE: "FAIR" INDICATES FEW OR NO CLOUDS BELOW 12,000 FEET WITH NO
       SIGNIFICANT WEATHER AND/OR OBSTRUCTIONS TO VISIBILITY.
       CURRENT SKY AND/OR WEATHER CONDITIONS ARE NOT AVAILABLE FOR
       CHILLICOTHE AND FARMINGTON.

MOZ001>031-035>038-043-044-053-054-310100-
...NORTHERN AND WESTERN MISSOURI...

CITY           SKY/WX    TMP DP  RH WIND       PRES   REMARKS
KANSAS CTY INT MOSUNNY   83  64  52 NE9       29.95S
6HR MIN TEMP:  80; 6HR MAX TEMP:  85;

LEE`S SUMMIT   SUNNY     83  66  56 E7        29.95S
6HR MIN TEMP:  82; 6HR MAX TEMP:  85; 6HR PCP: TRACE;

ST JOSEPH      CLOUDY    82  66  58 S3        29.94F
6HR MIN TEMP:  75; 6HR MAX TEMP:  83; 6HR PCP:  0.03;


$$
MOZ066>068-077>081-088>096-101>105-310100-
...SOUTHWEST MISSOURI...

CITY           SKY/WX    TMP DP  RH WIND       PRES   REMARKS
SPRINGFIELD    PTSUNNY   84  68  58 NE7       29.96S
6HR MIN TEMP:  83; 6HR MAX TEMP:  87;

JOPLIN         SUNNY     85  68  56 E7        29.94F
6HR MIN TEMP:  83; 6HR MAX TEMP:  87;

BRANSON        PTSUNNY   81  72  74 S6        29.99R

$$
MOZ032>034-039>042-045>050-055>058-069>072-310100-
...CENTRAL MISSOURI...

CITY           SKY/WX    TMP DP  RH WIND       PRES   REMARKS
COLUMBIA       NOT AVBL
JEFFERSON CITY SUNNY     82  64  54 NW6       29.95S
6HR MIN TEMP:  81; 6HR MAX TEMP:  84;

ROLLA          PTSUNNY   82  65  56 N6        29.95F
6HR MIN TEMP:  81; 6HR MAX TEMP:  85;

SEDALIA        SUNNY     82  67  60 NE8       29.97S
6HR MIN TEMP:  81; 6HR MAX TEMP:  85;


$$
MOZ051-052-059>065-310100-
...EAST CENTRAL MISSOURI...

CITY           SKY/WX    TMP DP  RH WIND       PRES   REMARKS
ST LOUIS INTL  MOSUNNY   83  66  56 N8        29.96F
6HR MIN TEMP:  82; 6HR MAX TEMP:  87;


$$
MOZ072>076-082>087-097>100-106>115-310100-
...SOUTH CENTRAL AND SOUTHEAST MISSOURI...

CITY           SKY/WX    TMP DP  RH WIND       PRES   REMARKS
CAPE GIRARDEAU MOSUNNY   82  73  74 SW7       29.94R
6HR MIN TEMP:  82; 6HR MAX TEMP:  86;

POPLAR BLUFF   CLOUDY    83  74  74 S5        29.94R
6HR MIN TEMP:  82; 6HR MAX TEMP:  89;

WEST PLAINS    CLOUDY    83  70  64 E3        29.98F
6HR MIN TEMP:  83; 6HR MAX TEMP:  88;


$$


USA.gov is the U.S. government's official web portal to all federal, state and local government web resources and services.